EW9675 Weather Reports


Display with metric or nautical units.
time (UTC)temp
F
wind
direction
speed
MPH
gust
MPH
rain 1hr
in
rain 24hr
in
rain mn
in
humidity
%
barometer
mb
20260508122003 54 184 3.0 3.0 0.00 0.03 0.03 88 1028.9
20260508121503 54 182 5.0 5.0 0.00 0.03 0.03 88 1028.9
20260508121003 54 191 5.0 5.0 0.00 0.03 0.03 87 1028.9
20260508120525 54 204 0.0 4.0 0.00 0.03 0.03 87 1028.9
20260508120025 54 0 0.0 0.0 0.00 0.03 0.03 87 1028.9
20260508115504 54 0 0.0 0.0 0.00 0.03 0.03 87 1028.9
20260508115004 54 0 0.0 0.0 0.00 0.03 0.03 86 1028.9
20260508114503 54 0 0.0 0.0 0.00 0.03 0.03 86 1028.9
20260508114004 54 0 0.0 0.0 0.00 0.03 0.03 86 1028.9
20260508113525 54 0 0.0 5.0 0.00 0.03 0.03 86 1028.9
20260508113004 54 0 1.0 5.0 0.00 0.03 0.03 85 1028.9
20260508112524 54 136 2.0 4.0 0.00 0.03 0.03 85 1028.9
20260508112024 54 134 1.0 5.0 0.00 0.03 0.03 85 1028.9
20260508111504 55 134 0.0 5.0 0.00 0.03 0.03 84 1028.9
20260508111004 55 191 0.0 3.0 0.00 0.03 0.03 84 1028.8
20260508110504 55 191 0.0 3.0 0.00 0.03 0.03 84 1028.8
20260508110004 55 0 1.0 0.0 0.00 0.03 0.03 84 1028.7
20260508105503 56 191 1.0 6.0 0.00 0.03 0.03 84 1028.8
20260508105004 56 194 1.0 8.0 0.00 0.03 0.03 83 1028.7
20260508104504 56 193 1.0 8.0 0.00 0.03 0.03 83 1028.7
20260508104003 56 166 3.0 8.0 0.00 0.03 0.03 83 1028.6
20260508103503 56 171 3.0 10.0 0.00 0.03 0.03 83 1028.6
20260508103003 56 176 3.0 10.0 0.00 0.03 0.03 84 1028.7
20260508102504 57 180 4.0 9.0 0.00 0.03 0.03 84 1028.7
20260508102025 57 184 4.0 9.0 0.00 0.03 0.03 84 1028.7
20260508101503 57 188 4.0 10.0 0.00 0.03 0.03 84 1028.6
20260508101024 57 188 5.0 10.0 0.00 0.03 0.03 85 1028.6
20260508100504 57 187 5.0 10.0 0.00 0.03 0.03 85 1028.6
20260508100004 57 185 5.0 10.0 0.00 0.03 0.03 85 1028.6
20260508095503 57 187 6.0 10.0 0.00 0.03 0.03 86 1028.5
20260508095024 57 192 6.0 10.0 0.00 0.03 0.03 86 1028.5
20260508094525 57 188 5.0 10.0 0.00 0.03 0.03 86 1028.5
20260508094003 57 186 5.0 10.0 0.00 0.03 0.03 86 1028.5
20260508093503 57 190 5.0 10.0 0.00 0.03 0.03 85 1028.5
20260508093004 57 192 5.0 11.0 0.00 0.03 0.03 85 1028.4
20260508092503 58 193 6.0 11.0 0.00 0.03 0.03 85 1028.4
20260508092004 58 198 6.0 11.0 0.00 0.03 0.03 85 1028.3
20260508091503 58 204 6.0 11.0 0.00 0.03 0.03 85 1028.3
20260508091004 58 205 6.0 14.0 0.00 0.03 0.03 85 1028.4
20260508090504 58 206 6.0 14.0 0.00 0.03 0.03 84 1028.4
20260508090003 58 205 6.0 13.0 0.00 0.03 0.03 84 1028.4
20260508085524 58 204 6.0 10.0 0.00 0.03 0.03 84 1028.3
20260508085003 59 207 6.0 9.0 0.00 0.03 0.03 83 1028.3
20260508084503 59 212 6.0 10.0 0.00 0.03 0.03 83 1028.3
20260508084003 59 217 6.0 14.0 0.00 0.03 0.03 83 1028.2
20260508083525 59 215 5.0 14.0 0.00 0.03 0.03 82 1028.2
20260508083024 59 213 6.0 14.0 0.00 0.03 0.03 82 1028.2
20260508082525 60 215 6.0 11.0 0.00 0.03 0.03 82 1028.2
20260508082003 60 219 5.0 11.0 0.00 0.03 0.03 81 1028.1
20260508081504 60 223 7.0 10.0 0.00 0.03 0.03 80 1028.1
20260508081004 60 223 9.0 15.0 0.00 0.03 0.03 80 1028.0
20260508080503 60 220 9.0 17.0 0.00 0.03 0.03 79 1028.0
20260508080004 61 217 9.0 17.0 0.00 0.03 0.03 79 1027.9
20260508075503 61 217 8.0 17.0 0.00 0.03 0.03 79 1027.9
20260508075004 61 221 7.0 17.0 0.00 0.03 0.03 79 1027.9
20260508074525 61 226 6.0 17.0 0.00 0.03 0.03 80 1027.9
20260508074003 61 222 6.0 14.0 0.00 0.03 0.03 80 1027.8
20260508073503 61 215 6.0 10.0 0.00 0.03 0.03 79 1027.8
20260508073003 61 219 7.0 13.0 0.00 0.03 0.03 80 1027.8
20260508072504 61 222 8.0 15.0 0.00 0.03 0.03 80 1027.8
20260508072004 61 220 9.0 17.0 0.00 0.03 0.03 80 1027.8
20260508071525 62 220 9.0 17.0 0.00 0.03 0.03 80 1027.8
20260508071025 62 228 10.0 18.0 0.00 0.03 0.03 80 1027.8
20260508070504 62 235 11.0 19.0 0.00 0.03 0.03 79 1027.8
20260508070004 62 233 10.0 19.0 0.00 0.03 0.03 78 1027.8
20260508065504 62 233 9.0 19.0 0.00 0.03 0.03 77 1027.9
20260508065004 62 234 9.0 19.0 0.00 0.03 0.03 77 1027.9
20260508064504 63 219 9.0 17.0 0.00 0.03 0.03 77 1027.8
20260508064004 63 212 9.0 19.0 0.00 0.03 0.03 77 1027.8
20260508063504 63 218 9.0 19.0 0.00 0.03 0.03 76 1027.7
20260508063004 63 217 9.0 15.0 0.00 0.03 0.03 76 1027.8
20260508062504 63 209 9.0 15.0 0.00 0.03 0.03 75 1027.8
20260508062004 63 206 9.0 18.0 0.00 0.03 0.03 75 1027.8
20260508061504 64 208 9.0 19.0 0.00 0.03 0.03 74 1027.8
20260508061004 64 213 9.0 19.0 0.00 0.03 0.03 75 1027.7
20260508060504 64 216 10.0 15.0 0.00 0.03 0.03 74 1027.7
20260508060004 64 226 10.0 15.0 0.00 0.03 0.03 75 1027.7
20260508055504 64 234 10.0 19.0 0.00 0.03 0.03 76 1027.7
20260508055004 63 229 10.0 19.0 0.00 0.03 0.03 75 1027.8
20260508054525 63 219 9.0 18.0 0.00 0.03 0.03 75 1027.7
20260508054004 63 216 9.0 18.0 0.00 0.03 0.03 74 1027.7
20260508053504 63 227 9.0 17.0 0.00 0.03 0.03 75 1027.7
20260508053004 64 229 9.0 15.0 0.00 0.03 0.03 75 1027.7
20260508052504 64 217 10.0 18.0 0.00 0.03 0.03 74 1027.7
20260508052004 64 216 10.0 19.0 0.00 0.03 0.03 73 1027.8
20260508051504 65 225 9.0 19.0 0.00 0.03 0.03 72 1027.8
20260508051025 65 230 9.0 18.0 0.00 0.03 0.03 75 1027.9
20260508050525 64 222 8.0 18.0 0.00 0.03 0.03 79 1027.7
20260508050004 63 221 8.0 18.0 0.00 0.03 0.03 79 1027.9
20260508045504 64 231 9.0 13.0 0.00 0.03 0.03 80 1028.0
20260508045010 64 235 10.0 18.0 0.01 0.03 0.03 81 1028.0
20260508044504 64 238 9.0 19.0 0.01 0.03 0.03 82 1028.0
20260508044025 63 237 7.0 19.0 0.01 0.03 0.03 83 1028.1
20260508043504 63 233 8.0 13.0 0.01 0.03 0.03 86 1028.1
20260508043004 62 224 8.0 15.0 0.02 0.03 0.03 88 1028.1
20260508042525 61 217 8.0 15.0 0.02 0.03 0.03 88 1028.2
20260508042004 60 216 8.0 14.0 0.02 0.03 0.03 88 1028.2
20260508041504 60 220 8.0 18.0 0.02 0.03 0.03 88 1028.2
20260508041005 61 228 9.0 18.0 0.02 0.03 0.03 88 1028.4
20260508040504 60 238 10.0 18.0 0.02 0.03 0.03 87 1028.4
20260508040004 60 233 10.0 18.0 0.02 0.03 0.03 87 1028.4
20260508035504 61 232 8.0 18.0 0.02 0.03 0.03 87 1028.5
20260508035004 62 233 8.0 18.0 0.02 0.02 0.02 87 1028.4
20260508034504 62 237 9.0 17.0 0.02 0.02 0.02 87 1028.5
20260508034004 61 241 8.0 17.0 0.02 0.02 0.02 87 1028.7
20260508033504 61 225 7.0 17.0 0.02 0.02 0.02 86 1028.7
20260508033025 62 219 6.0 13.0 0.01 0.02 0.02 87 1028.7
20260508032504 61 223 6.0 11.0 0.01 0.02 0.02 87 1028.8
20260508032004 60 226 7.0 11.0 0.01 0.02 0.02 87 1028.8
20260508031504 61 226 8.0 14.0 0.01 0.02 0.02 87 1028.8
20260508031025 61 221 9.0 17.0 0.01 0.02 0.02 87 1028.9
20260508030504 60 224 9.0 18.0 0.02 0.02 0.02 86 1029.0
20260508030004 60 229 8.0 18.0 0.02 0.02 0.02 85 1029.1
20260508025504 61 240 8.0 15.0 0.01 0.01 0.01 85 1029.1
20260508025025 61 241 8.0 13.0 0.01 0.01 0.01 85 1029.1
20260508024504 62 230 8.0 15.0 0.01 0.01 0.01 85 1029.2
20260508024004 62 230 9.0 15.0 0.01 0.01 0.01 88 1029.3
20260508023504 60 229 8.0 15.0 0.01 0.01 0.01 87 1029.4
20260508023004 60 232 7.0 15.0 0.01 0.01 0.01 86 1029.5
20260508022504 60 240 7.0 14.0 0.01 0.01 0.01 86 1029.4
20260508022004 60 241 8.0 14.0 0.01 0.01 0.01 86 1029.5
20260508021504 60 232 9.0 17.0 0.01 0.01 0.01 86 1029.6
20260508021003 60 226 8.0 17.0 0.01 0.01 0.01 85 1029.7
20260508020504 60 227 8.0 15.0 0.00 0.00 0.00 83 1029.7
20260508020004 61 230 8.0 13.0 0.00 0.00 0.00 83 1029.7
20260508015525 61 223 7.0 17.0 0.00 0.00 0.00 84 1029.7
20260508015004 61 219 6.0 17.0 0.00 0.00 0.00 86 1029.8
20260508014504 60 223 6.0 14.0 0.00 0.00 0.00 87 1029.9
20260508014004 60 220 6.0 13.0 0.00 0.00 0.00 86 1030.0
20260508013504 60 216 6.0 13.0 0.00 0.00 0.00 85 1030.0
20260508013004 60 214 6.0 11.0 0.00 0.00 0.00 86 1030.1
20260508012525 60 207 6.0 10.0 0.00 0.00 0.00 86 1030.1
20260508012025 60 212 5.0 10.0 0.00 0.00 0.00 86 1030.2
20260508011504 60 210 5.0 10.0 0.00 0.00 0.00 86 1030.2
20260508011004 60 199 6.0 10.0 0.00 0.00 0.00 85 1030.2
20260508010504 59 205 6.0 13.0 0.00 0.00 0.00 85 1030.3
20260508010025 59 216 6.0 14.0 0.00 0.00 0.00 83 1030.2
20260508005504 60 211 6.0 14.0 0.00 0.00 0.00 82 1030.2
20260508005025 60 198 6.0 13.0 0.00 0.00 0.00 81 1030.2
20260508004504 60 196 7.0 10.0 0.00 0.00 0.00 80 1030.2
20260508004004 60 207 6.0 13.0 0.00 0.00 0.00 79 1030.1
20260508003504 60 212 5.0 13.0 0.00 0.00 0.00 79 1030.0
20260508003004 60 212 6.0 11.0 0.00 0.00 0.00 80 1029.9
20260508002504 60 204 6.0 11.0 0.00 0.00 0.00 80 1029.9
20260508002003 60 207 6.0 11.0 0.00 0.00 0.00 80 1029.9
20260508001503 59 219 7.0 13.0 0.00 0.00 0.00 79 1029.9
20260508001004 59 214 8.0 13.0 0.00 0.00 0.00 80 1029.8
20260508000525 59 207 9.0 18.0 0.00 0.00 0.00 81 1029.8
20260508000004 59 213 8.0 18.0 0.00 0.00 0.00 80 1029.9
20260507235504 59 213 8.0 15.0 0.00 0.00 0.00 80 1029.9
20260507235024 59 209 8.0 14.0 0.00 0.00 0.00 79 1029.8
20260507234504 60 211 8.0 18.0 0.00 0.00 0.00 77 1029.8
20260507234004 60 222 8.0 18.0 0.00 0.00 0.00 77 1029.8
20260507233504 60 229 8.0 15.0 0.00 0.00 0.00 76 1029.7
20260507233025 60 224 7.0 14.0 0.00 0.00 0.00 76 1029.6
20260507232504 59 224 6.0 14.0 0.00 0.00 0.00 76 1029.6
20260507232004 59 224 6.0 13.0 0.00 0.00 0.00 77 1029.6
20260507231525 59 218 6.0 14.0 0.00 0.00 0.00 77 1029.6
20260507231003 59 221 6.0 14.0 0.00 0.00 0.00 77 1029.6
20260507230524 59 229 7.0 10.0 0.00 0.00 0.00 77 1029.6
20260507230004 59 236 8.0 14.0 0.00 0.00 0.00 76 1029.6
20260507225504 59 241 7.0 14.0 0.00 0.00 0.00 76 1029.6
20260507225004 59 236 6.0 14.0 0.00 0.00 0.00 76 1029.6
20260507224524 59 231 6.0 14.0 0.00 0.00 0.00 77 1029.5
20260507224004 58 227 4.0 13.0 0.00 0.00 0.00 78 1029.4
20260507223503 58 227 3.0 13.0 0.00 0.00 0.00 78 1029.4
20260507223003 58 223 3.0 11.0 0.00 0.00 0.00 80 1029.4
20260507222503 58 212 3.0 9.0 0.00 0.00 0.00 80 1029.3
20260507222004 58 214 2.0 9.0 0.00 0.00 0.00 80 1029.2
20260507221524 57 225 1.0 6.0 0.00 0.00 0.00 81 1029.1
20260507221004 57 224 0.0 6.0 0.00 0.00 0.00 81 1029.1
20260507220503 57 207 0.0 5.0 0.00 0.00 0.00 81 1029.1
20260507220025 57 211 0.0 3.0 0.00 0.00 0.00 81 1029.0
20260507215504 57 223 1.0 6.0 0.00 0.00 0.00 81 1028.9
20260507215004 57 226 0.0 6.0 0.00 0.00 0.00 82 1028.8
20260507214524 57 222 0.0 5.0 0.00 0.00 0.00 82 1028.8
20260507214004 56 0 0.0 0.0 0.00 0.00 0.00 82 1028.8
20260507213524 56 0 0.0 0.0 0.00 0.00 0.00 82 1028.8
20260507213003 56 0 0.0 0.0 0.00 0.00 0.00 82 1028.7
20260507212503 56 0 0.0 0.0 0.00 0.00 0.00 82 1028.6
20260507212003 56 0 0.0 0.0 0.00 0.00 0.00 82 1028.6
20260507211504 56 0 0.0 0.0 0.00 0.00 0.00 82 1028.7
20260507211025 57 0 0.0 0.0 0.00 0.00 0.00 82 1028.7
20260507210503 57 0 0.0 0.0 0.00 0.00 0.00 82 1028.7
20260507210025 57 231 1.0 3.0 0.00 0.00 0.00 82 1028.7
20260507205504 57 215 1.0 8.0 0.00 0.00 0.00 82 1028.7
20260507205024 57 215 1.0 8.0 0.00 0.00 0.00 82 1028.7
20260507204504 56 216 1.0 6.0 0.00 0.00 0.00 82 1028.6
20260507204003 56 213 1.0 5.0 0.00 0.00 0.00 82 1028.6
20260507203503 56 208 1.0 6.0 0.00 0.00 0.00 82 1028.6
20260507203003 57 206 1.0 6.0 0.00 0.00 0.00 82 1028.5
20260507202503 57 207 2.0 6.0 0.00 0.00 0.00 82 1028.5
20260507202004 57 205 2.0 5.0 0.00 0.00 0.00 82 1028.5
20260507201503 57 198 2.0 9.0 0.00 0.00 0.00 82 1028.5
20260507201003 57 192 2.0 9.0 0.00 0.00 0.00 81 1028.5
20260507200524 57 188 2.0 6.0 0.00 0.00 0.00 81 1028.7
20260507200003 57 217 2.0 6.0 0.00 0.00 0.00 81 1028.7
20260507195503 57 227 1.0 6.0 0.00 0.00 0.00 81 1028.6
20260507195024 57 244 0.0 6.0 0.00 0.00 0.00 81 1028.6
20260507194503 57 240 1.0 4.0 0.00 0.00 0.00 81 1028.7
20260507194003 57 242 1.0 5.0 0.00 0.00 0.00 81 1028.7
20260507193504 57 246 0.0 6.0 0.00 0.00 0.00 81 1028.6
20260507193025 56 256 0.0 6.0 0.00 0.00 0.00 81 1028.6
20260507192503 56 0 0.0 0.0 0.00 0.00 0.00 81 1028.6
20260507192003 56 0 0.0 0.0 0.00 0.00 0.00 81 1028.6
20260507191503 56 0 0.0 0.0 0.00 0.00 0.00 81 1028.5
20260507191003 56 207 0.0 5.0 0.00 0.00 0.00 81 1028.5
20260507190504 56 210 0.0 5.0 0.00 0.00 0.00 81 1028.6
20260507190005 56 219 1.0 3.0 0.00 0.00 0.00 81 1028.5
20260507185503 56 210 2.0 6.0 0.00 0.00 0.00 82 1028.4
20260507185003 56 201 3.0 8.0 0.00 0.00 0.00 82 1028.5
20260507184504 56 192 3.0 8.0 0.00 0.00 0.00 82 1028.4
20260507184025 56 190 3.0 8.0 0.00 0.00 0.00 82 1028.4
20260507183503 56 191 4.0 9.0 0.00 0.00 0.00 83 1028.5
20260507183003 56 190 6.0 10.0 0.00 0.00 0.00 83 1028.4
20260507182503 56 192 6.0 10.0 0.00 0.00 0.00 83 1028.4
20260507182025 56 199 6.0 11.0 0.00 0.00 0.00 83 1028.4
20260507181504 56 202 6.0 11.0 0.00 0.00 0.00 82 1028.4
20260507181004 56 201 5.0 13.0 0.00 0.00 0.00 82 1028.4
20260507180504 56 198 4.0 13.0 0.00 0.00 0.00 82 1028.4
20260507180004 56 192 3.0 10.0 0.00 0.00 0.00 81 1028.5
20260507175525 56 189 2.0 10.0 0.00 0.00 0.00 81 1028.6
20260507175025 56 193 1.0 6.0 0.00 0.00 0.00 80 1028.7
20260507174504 56 196 1.0 5.0 0.00 0.00 0.00 80 1028.7
20260507174004 56 211 2.0 6.0 0.00 0.00 0.00 80 1028.6
20260507173504 57 212 2.0 6.0 0.00 0.00 0.00 80 1028.6
20260507173025 57 216 1.0 6.0 0.00 0.00 0.00 80 1028.6
20260507172504 57 231 2.0 5.0 0.00 0.00 0.00 80 1028.6
20260507172004 57 204 3.0 8.0 0.00 0.00 0.00 80 1028.5
20260507171504 57 194 4.0 9.0 0.00 0.00 0.00 80 1028.6
20260507171004 57 188 4.0 11.0 0.00 0.00 0.00 80 1028.7
20260507170504 57 184 4.0 11.0 0.00 0.00 0.00 80 1028.7
20260507170004 57 187 5.0 13.0 0.00 0.00 0.00 80 1028.7
20260507165504 57 185 6.0 13.0 0.00 0.00 0.00 80 1028.7
20260507165004 57 186 6.0 13.0 0.00 0.00 0.00 79 1028.7
20260507164504 57 191 7.0 13.0 0.00 0.00 0.00 79 1028.7
20260507164004 57 202 7.0 18.0 0.00 0.00 0.00 79 1028.7
20260507163504 57 203 5.0 18.0 0.00 0.00 0.00 78 1028.7
20260507163025 57 203 3.0 18.0 0.00 0.00 0.00 77 1028.8
20260507162504 57 204 3.0 10.0 0.00 0.00 0.00 77 1028.7
20260507162004 57 208 3.0 8.0 0.00 0.00 0.00 77 1028.7
20260507161504 57 205 3.0 8.0 0.00 0.00 0.00 77 1028.7
20260507161004 57 200 3.0 6.0 0.00 0.00 0.00 77 1028.7
20260507160504 57 195 4.0 8.0 0.00 0.00 0.00 77 1028.7
20260507160004 57 196 5.0 9.0 0.00 0.00 0.00 77 1028.7
20260507155525 57 197 5.0 10.0 0.00 0.00 0.00 76 1028.8
20260507155004 57 198 4.0 11.0 0.00 0.00 0.00 76 1028.9
20260507154504 56 193 1.0 11.0 0.00 0.00 0.00 76 1028.9
20260507154025 56 185 0.0 11.0 0.00 0.00 0.00 76 1029.0
20260507153504 56 0 0.0 0.0 0.00 0.00 0.00 77 1028.9
20260507153025 56 0 0.0 0.0 0.00 0.00 0.00 77 1028.9
20260507152504 56 0 0.0 0.0 0.00 0.00 0.00 77 1028.9
20260507152025 56 0 0.0 0.0 0.00 0.00 0.00 77 1029.0
20260507151504 56 0 0.0 0.0 0.00 0.00 0.00 77 1028.9
20260507151004 56 0 0.0 0.0 0.00 0.00 0.00 77 1028.9
20260507150504 56 0 0.0 0.0 0.00 0.00 0.00 77 1028.9
20260507150004 56 0 0.0 0.0 0.00 0.00 0.00 77 1029.0
20260507145504 56 0 0.0 0.0 0.00 0.00 0.00 77 1029.0
20260507145004 56 0 0.0 0.0 0.00 0.00 0.00 77 1029.0
20260507144504 56 0 0.0 0.0 0.00 0.00 0.00 77 1029.0
20260507144025 56 0 0.0 0.0 0.00 0.00 0.00 77 1029.1
20260507143504 56 0 0.0 0.0 0.00 0.00 0.00 78 1029.1
20260507143026 56 0 0.0 0.0 0.00 0.00 0.00 78 1029.0
20260507142525 56 196 1.0 5.0 0.00 0.00 0.00 78 1029.0
20260507142004 56 199 2.0 5.0 0.00 0.00 0.00 78 1028.9
20260507141504 56 202 3.0 8.0 0.00 0.00 0.00 78 1029.0
20260507141025 56 201 3.0 8.0 0.00 0.00 0.00 78 1029.0
20260507140525 56 199 2.0 8.0 0.00 0.00 0.00 78 1029.0
20260507140004 56 203 1.0 8.0 0.00 0.00 0.00 78 1029.0
20260507135504 56 211 1.0 6.0 0.00 0.00 0.00 78 1029.0
20260507135004 55 210 1.0 5.0 0.00 0.00 0.00 79 1029.1
20260507134525 55 210 0.0 5.0 0.00 0.00 0.00 78 1029.1
20260507134004 55 0 0.0 0.0 0.00 0.00 0.00 79 1029.1
20260507133504 55 195 0.0 5.0 0.00 0.00 0.00 79 1029.1
20260507133025 55 195 0.0 5.0 0.00 0.00 0.00 79 1029.2
20260507132504 55 0 0.0 0.0 0.00 0.00 0.00 79 1029.2
20260507132004 55 0 0.0 0.0 0.00 0.00 0.00 79 1029.2
20260507131504 55 203 1.0 5.0 0.00 0.00 0.00 80 1029.2
20260507131004 55 211 1.0 5.0 0.00 0.00 0.00 80 1029.2
20260507130525 55 211 2.0 6.0 0.00 0.00 0.00 80 1029.1
20260507130004 55 207 2.0 6.0 0.00 0.00 0.00 80 1029.2
20260507125525 55 202 3.0 6.0 0.00 0.00 0.00 81 1029.2
20260507125004 55 192 3.0 9.0 0.00 0.00 0.00 81 1029.4
20260507124504 55 187 3.0 9.0 0.00 0.00 0.00 81 1029.4
20260507124004 55 182 3.0 8.0 0.00 0.00 0.00 81 1029.4
20260507123504 55 180 4.0 10.0 0.00 0.00 0.00 81 1029.5
20260507123004 55 178 4.0 10.0 0.00 0.00 0.00 81 1029.6
20260507122504 55 179 5.0 9.0 0.00 0.00 0.00 80 1029.6